Quick links : Home Page : Contact Us : Index : Site Map : Search Site : Ephemerides


(162452) 2000 HO14

Orbital Elements

The following orbital elements are taken from MPO123082
(162452) 2000 HO14
Epoch 2007 Oct. 27.0 TT = JDT 2454400.5                 MPC
M  49.08870              (2000.0)            P               Q
n   0.28941442     Peri.   53.74701     +0.02038100     +0.99811076
a   2.2635457      Node   217.54848     -0.94509637     +0.00032129
e   0.4456043      Incl.    5.45750     -0.32615560     +0.06143952
P   3.41           H   18.4           G   0.15           U   1
From 83 observations at 3 oppositions, 1983-2007, mean residual 0".48.
An explanation of the orbital elements is available.

These orbital elements are also available in forms suitable for loading into a number of popular planetarium-type software programs.


Ephemeris

The following ephemeris is at intervals of five days. A daily ephemeris covering the same time interval is also available.

Personalized ephemerides for this (and other) objects may be generated using the Minor Planet & Comet Ephemeris Service.

Date    TT    R. A. (2000) Decl.     Delta      r     Elong.  Phase     V
2008 04 14    02 50.74   +15 17.9    3.690    2.773    20.5     7.3    24.0

Back to Observable Critical-List Minor Planets

MPC

Valid HTML 4.01!